Date String (YYYY-MM-DD hh:mm:ss) UTC,Instrument flags,Ambient pressure (hPa),Sample flow (lpm),Bypass flow (lpm),Sample temperature (°C),Ambient temperature (°C),ASC tube jacket temperature (°C),LED temperature (°C),Box temperature (°C),Sample RH (%),Span deviation,Mass concentration (μg/m³),Mass concentration (μg/m³),Mass concentration (μg/m³)
DateTimeUTC,F1_M11,P_M11,Q1_M11,Q2_M11,T1_M11,T2_M11,T3_M11,T4_M11,T5_M11,U1_M11,ZSPAN_M11,X0_M11,X2_M11,X1_M11
2022-03-27 19:00:00,,0823.0,5.01,0.00,26.6,25.8,00.0,35.5,28.5,15.4,0003.3,0024.03,0012.90,0010.81
2022-03-27 19:01:00,,0823.0,5.01,0.00,26.6,25.8,00.0,35.5,28.5,15.3,0003.3,0024.42,0013.05,0010.94
2022-03-27 19:02:00,,0823.0,4.99,0.00,26.6,25.8,00.0,35.5,28.5,15.2,0003.5,0025.29,0013.23,0011.12
2022-03-27 19:03:00,,0822.9,5.00,0.00,26.6,25.9,00.0,35.5,28.5,15.3,0003.9,0025.05,0013.39,0011.26
2022-03-27 19:04:00,,0822.9,5.00,0.00,26.7,25.9,00.0,35.5,28.5,15.3,0004.0,0025.74,0013.56,0011.39
2022-03-27 19:05:00,,0822.9,5.01,0.00,26.7,25.9,00.0,35.5,28.5,15.4,0004.1,0026.85,0013.70,0011.51
2022-03-27 19:06:00,,0823.0,5.00,0.00,26.7,25.9,00.0,35.5,28.5,15.7,0004.2,0027.18,0013.82,0011.59
2022-03-27 19:07:00,,0823.0,4.98,0.00,26.7,25.9,00.0,35.6,28.5,15.6,0004.2,0026.81,0014.02,0011.73
2022-03-27 19:08:00,,0822.9,5.01,0.00,26.7,25.9,00.0,35.6,28.5,15.4,0004.1,0026.87,0014.18,0011.85
2022-03-27 19:09:00,,0822.9,5.00,0.00,26.7,25.9,00.0,35.6,28.5,15.2,0004.0,0026.76,0014.34,0011.98
2022-03-27 19:10:00,,0823.0,5.00,0.00,26.7,25.9,00.0,35.6,28.5,15.4,0004.0,0026.86,0014.60,0012.14
2022-03-27 19:11:00,,0822.9,5.00,0.00,26.7,25.9,00.0,35.6,28.5,15.4,0003.9,0026.72,0014.85,0012.38
2022-03-27 19:12:00,,0822.9,5.00,0.00,26.7,25.9,00.0,35.6,28.5,15.3,0003.9,0027.19,0015.11,0012.61
2022-03-27 19:13:00,,0822.9,4.99,0.00,26.6,25.9,00.0,35.6,28.5,15.4,0003.7,0027.14,0015.40,0012.82
2022-03-27 19:14:00,,0822.8,5.00,0.00,26.6,25.9,00.0,35.6,28.4,15.1,0003.4,0026.92,0015.76,0013.10
2022-03-27 19:15:00,,0822.7,4.98,0.00,26.6,25.9,00.0,35.6,28.4,15.2,0003.4,0026.87,0016.16,0013.45
2022-03-27 19:16:00,,0822.6,5.00,0.00,26.6,25.8,00.0,35.6,28.4,15.3,0003.3,0027.24,0016.61,0013.78
2022-03-27 19:17:00,,0822.8,5.00,0.00,26.6,25.9,00.0,35.6,28.5,15.3,0003.2,0027.89,0017.04,0014.12
2022-03-27 19:18:00,,0822.9,5.00,0.00,26.6,25.9,00.0,35.6,28.4,14.9,0003.1,0028.37,0017.33,0014.40
2022-03-27 19:19:00,,0822.8,5.00,0.00,26.6,25.9,00.0,35.6,28.5,14.9,0003.3,0029.59,0017.64,0014.68
2022-03-27 19:20:00,,0822.7,4.99,0.00,26.6,25.9,00.0,35.6,28.5,15.0,0003.4,0030.62,0017.79,0014.84
2022-03-27 19:21:00,,0822.7,5.01,0.00,26.6,25.9,00.0,35.6,28.5,15.0,0003.6,0030.94,0017.81,0014.87
2022-03-27 19:22:00,,0822.7,5.00,0.00,26.7,25.9,00.0,35.6,28.5,15.0,0003.7,0030.68,0017.64,0014.71
2022-03-27 19:23:00,,0822.7,5.00,0.00,26.7,25.9,00.0,35.6,28.5,15.0,0003.9,0029.75,0017.21,0014.38
2022-03-27 19:24:00,,0822.7,5.00,0.00,26.7,25.9,00.0,35.6,28.5,15.1,0004.2,0029.13,0016.69,0013.95
2022-03-27 19:25:00,,0822.6,5.00,0.00,26.7,25.9,00.0,35.6,28.5,15.3,0004.3,0028.44,0016.06,0013.42
2022-03-27 19:26:00,,0822.6,4.98,0.00,26.7,26.0,00.0,35.6,28.5,15.2,0004.4,0027.34,0015.35,0012.87
2022-03-27 19:27:00,,0822.6,5.00,0.00,26.7,25.9,00.0,35.6,28.5,15.4,0004.3,0025.42,0014.63,0012.31
2022-03-27 19:28:00,,0822.6,5.00,0.00,26.7,25.9,00.0,35.6,28.5,15.3,0004.3,0024.77,0013.96,0011.74
2022-03-27 19:29:00,,0822.6,5.00,0.00,26.7,25.9,00.0,35.6,28.5,15.4,0004.3,0024.14,0013.30,0011.18
2022-03-27 19:30:00,,0822.6,5.00,0.00,26.7,25.9,00.0,35.6,28.6,15.3,0004.1,0022.79,0012.60,0010.63
2022-03-27 19:31:00,,0822.6,5.01,0.00,26.7,26.0,00.0,35.6,28.6,15.4,0003.9,0021.16,0012.01,0010.15
2022-03-27 19:32:00,,0822.6,4.98,0.00,26.7,26.0,00.0,35.6,28.6,15.4,0003.7,0020.19,0011.55,0009.77
2022-03-27 19:33:00,,0822.5,5.01,0.00,26.8,26.0,00.0,35.6,28.6,15.2,0003.3,0020.30,0011.23,0009.50
2022-03-27 19:34:00,,0822.5,5.00,0.00,26.8,26.0,00.0,35.7,28.6,15.1,0003.0,0020.13,0011.09,0009.37
2022-03-27 19:35:00,,0822.6,5.00,0.00,26.8,26.0,00.0,35.7,28.6,15.1,0002.9,0020.60,0011.08,0009.37
2022-03-27 19:36:00,,0822.6,5.00,0.00,26.8,26.1,00.0,35.7,28.6,15.2,0002.6,0021.11,0011.12,0009.37
2022-03-27 19:37:00,,0822.5,5.00,0.00,26.8,26.1,00.0,35.7,28.7,15.1,0002.3,0021.25,0011.14,0009.36
2022-03-27 19:38:00,,0822.5,4.99,0.00,26.8,26.1,00.0,35.7,28.6,15.0,0002.3,0021.45,0011.23,0009.42
2022-03-27 19:39:00,,0822.5,5.00,0.00,26.8,26.1,00.0,35.7,28.6,15.1,0002.4,0022.32,0011.30,0009.47
2022-03-27 19:40:00,,0822.6,5.00,0.00,26.8,26.1,00.0,35.7,28.6,15.1,0002.4,0023.07,0011.37,0009.53
2022-03-27 19:41:00,,0822.5,5.00,0.00,26.8,26.1,00.0,35.7,28.7,15.2,0002.6,0023.27,0011.43,0009.60
2022-03-27 19:42:00,,0822.5,5.00,0.00,26.8,26.1,00.0,35.7,28.6,15.0,0002.7,0023.52,0011.56,0009.68
2022-03-27 19:43:00,,0822.6,5.01,0.00,26.8,26.1,00.0,35.7,28.6,15.0,0002.4,0024.25,0011.69,0009.77
2022-03-27 19:44:00,,0822.5,5.00,0.00,26.8,26.1,00.0,35.7,28.6,14.9,0002.3,0024.94,0011.81,0009.84
2022-03-27 19:45:00,,0822.5,5.00,0.00,26.8,26.1,00.0,35.7,28.6,15.1,0002.7,0024.99,0011.90,0009.90
2022-03-27 19:46:00,,0822.5,4.99,0.00,26.8,26.1,00.0,35.7,28.7,15.1,0002.4,0024.49,0011.98,0009.93
2022-03-27 19:47:00,,0822.5,5.00,0.00,26.8,26.1,00.0,35.7,28.7,15.1,0002.7,0024.32,0012.07,0009.98
2022-03-27 19:48:00,,0822.5,5.00,0.00,26.8,26.1,00.0,35.7,28.7,15.1,0002.9,0025.10,0012.24,0010.04
2022-03-27 19:49:00,,0822.4,5.01,0.00,26.8,26.1,00.0,35.7,28.7,15.2,0003.2,0026.96,0012.28,0010.07
2022-03-27 19:50:00,,0822.4,5.00,0.00,26.9,26.1,00.0,35.7,28.7,15.0,0003.5,0027.42,0012.31,0010.10
2022-03-27 19:51:00,,0822.4,5.00,0.00,26.9,26.1,00.0,35.8,28.7,15.0,0003.6,0026.41,0012.33,0010.14
2022-03-27 19:52:00,,0822.3,4.98,0.00,26.9,26.1,00.0,35.8,28.8,15.2,0003.4,0026.85,0012.39,0010.19
2022-03-27 19:53:00,,0822.3,5.00,0.00,26.9,26.2,00.0,35.8,28.8,15.1,0003.7,0026.82,0012.43,0010.20
2022-03-27 19:54:00,,0822.3,4.99,0.00,26.9,26.2,00.0,35.8,28.8,15.3,0003.9,0026.53,0012.36,0010.17
2022-03-27 19:55:00,,0822.4,5.01,0.00,26.9,26.2,00.0,35.8,28.8,15.2,0003.7,0025.49,0012.35,0010.16
2022-03-27 19:56:00,,0822.3,5.00,0.00,26.9,26.2,00.0,35.8,28.7,15.1,0003.4,0025.38,0012.32,0010.16
2022-03-27 19:57:00,,0822.4,5.01,0.00,26.9,26.2,00.0,35.8,28.7,15.2,0003.6,0026.32,0012.31,0010.20
2022-03-27 19:58:00,,0822.3,5.01,0.00,26.9,26.2,00.0,35.8,28.7,15.1,0003.3,0026.55,0012.30,0010.22
2022-03-27 19:59:00,,0822.2,4.99,0.00,26.9,26.2,00.0,35.8,28.8,15.0,0003.2,0025.66,0012.24,0010.23
